Other Surface Observations
Issued by NWS Tucson, AZ

Home | Current Version | Previous Version | Text Only | Print | Product List | Glossary On
Versions: 1 2 3 4 5 6 7 8 9 10 11 12 13 14 15 16 17 18 19 20 21 22 23 24 25 26 27 28 29 30 31 32 33 34 35 36 37 38 39 40 41 42 43 44 45 46 47 48 49 50
000
SXUS55 KTWC 181316
OSOTWC

WEATHER ROUNDUP FOR SOUTHEAST ARIZONA
NATIONAL WEATHER SERVICE TUCSON AZ
615 AM MST THU SEP 18 2014

AZZ504>506-514-181415-
LOCATION       SKY/WX    TMP DP  RH WIND       PRES   REMARKS
TUCSON         CLOUDY    71  68  90 SW3       29.86R
DAVIS-MONTHAN  MOCLDY    69  69  97 S1        29.84R
CHILDRENS PARK N/A       71  68  89 N3                PIMA CO DEQ
ALVERNON/22ND  N/A      N/A N/A N/A N/A               PIMA CO DEQ
CHERRY/GLENN   N/A      N/A N/A N/A N/A               PIMA CO DEQ
TANGERINE      N/A       72 N/A N/A N2                PIMA CO DEQ
CONTL RANCH    N/A       73  68  83 N3                PIMA CO DEQ
GRANT/1ST      N/A       71  68  89 NE2               PIMA CO DEQ
CRAYCROFT/22ND N/A      N/A N/A N/A N/A               PIMA CO DEQ
GOLFLINKS/KOLB N/A       70  67  90 W2                PIMA CO DEQ
AJO/12TH       N/A       71  68  90 S4                PIMA CO DEQ
SAGUARO EAST   N/A      N/A N/A N/A N/A               PIMA CO DEQ
FAIRGROUNDS    N/A      N/A N/A N/A N/A               PIMA CO DEQ
SAGUARO        N/A       71  66  83 NW4               *SABINO CYN
SAN CARLOS     N/A       68  64  88 E2                *SAN CARLOS
GREEN VALLEY   N/A       68  67  96 N5                PIMA CO DEQ
HORSE CAMP CYN N/A       65  62  91 SE7G19            *ARAVAIPA CYN
RINCON MTNS    N/A       54  54  100 CALM             *NR MANNING CAMP
$$

AZZ509>511-181415-
LOCATION       SKY/WX    TMP DP  RH WIND       PRES   REMARKS
SAFFORD        CLOUDY    66  64  93 SE7       29.90R
STRAY HORSE    N/A       54  50  85 E2                *
TRAIL CABIN    N/A       57  56  96 E5G10             *N OF GRANVILLE
BLACK HILLS    N/A       66  64  93 SE8G12            *N OF FT THOMAS
DRY LAKE       N/A       53  53  100 E3               *NATANES MTNS
NOON CREEK     N/A       61  59  94 SW3               *PINALENO MTNS
COLUMBINE      N/A       49  48  97 E3G11             *PINALENO MTNS
GUTHRIE        N/A       56  56  100 E13G20           *SW OF GUTHRIE
$$

AZZ502-503-513-181415-
LOCATION       SKY/WX    TMP DP  RH WIND       PRES   REMARKS
NOGALES        CLOUDY    66  65  96 CALM      29.91R FOG
SELLS          N/A       69  69  100 S3               *
SASABE         N/A       69  66  91 CALM              *ALTAR VLY
HOPKINS        N/A       57  57  100 W10G17           *SANTA RITA MTNS
CARR CYN       N/A       62  62  99 CALM              *W OF HEREFORD
$$

AZZ507-508-512-181415-
LOCATION       SKY/WX    TMP DP  RH WIND       PRES   REMARKS
SIERRA VISTA   DRIZZLE   64  64 100 N9        29.94R
DOUGLAS        RAIN      65  64  97 S10       29.91S FOG
EMPIRE MTNS    N/A       63  63  100 N5               *LAS CIENEGAS NCA
MULESHOE RANCH N/A       63  59  87 E8G25             *PRESERVE
HEADQUARTERS   N/A       60  57  91 E9G18             *CHIRICAHUA MTNS
$$

.............................NOTES.............................
THIS IS AN AUTOMATED COLLECTIVE WITH MINIMAL QUALITY CONTROL.
PIMA CO DEQ SITES HAVE NONSTANDARD WIND SENSOR HEIGHTS.
PIMA CO DEQ SITES DO NOT REPORT WIND GUSTS.
* INDICATES WIND SENSORS LOCATED AT 20 FEET INSTEAD OF 33 FEET.
..............................KEY..............................
SKY/WX - SKY CONDITION/WEATHER
TMP    - TEMPERATURE IN FAHRENHEIT
DP     - DEWPOINT IN FAHRENHEIT
RH     - RELATIVE HUMIDITY IN PERCENT
WIND   - DIRECTION AND SPEED IN MILES PER HOUR (MPH)
VRB    - VARIABLE WIND DIRECTION
PRES   - MEAN SEA LEVEL PRESSURE IN INCHES OF MERCURY
         F - FALLING PRESSURE   R - RISING PRESSURE
         S - STEADY PRESSURE
VSB    - VISIBILITY IN MILES
HX     - HEAT INDEX IN FAHRENHEIT
WCI    - WIND CHILL INDEX IN FAHRENHEIT
N/A    - NOT AVAILABLE
AFB    - AIR FORCE BASE
         DAVIS-MONTHAN IS DAVIS-MONTHAN AIR FORCE BASE
CYN    - CANYON
MTNS   - MOUNTAINS
NCA    - NATIONAL CONSERVATION AREA
NR     - NEAR
VLY    - VALLEY
CONTL  - CONTINENTAL
PIMA CO DEQ - PIMA COUNTY DEPT OF ENVIRONMENTAL QUALITY



USA.gov is the U.S. government's official web portal to all federal, state and local government web resources and services.